Омутинский

Россия / Тюменская область     56°26′15″N   67°36′46″E
темп.,
°C
ветер,
м/с
пор.,
м/с
влажн.,
%
обл.,
%
осадки,
мм/ч
давл.,
гПа
погр.,
м
12 апреля, пн
пн1223:00+3юз5147826 0.0 1034276
02:00+2юз5148163 0.0 1033272
05:00+2юз5118987 0.0 1033219
08:00+3зюз41099100 0.0 1032241
11:00+5з48100100 0.0 1032242
14:00+6зсз48100100 0.1 1032343
17:00+9зсз2388100 0.1 103491
20:00+7сз3783100 0.0 103598
13 апреля, вт
вт1323:00+5сз49850 0.0 1036146
02:00+3с33680 0.0 103835
05:00+2ссз33690 0.0 104021
08:00+4зсз35720 0.0 1041170
11:00+8зсз46580 0.0 1041711
14:00+11зсз564755 0.0 10401027
17:00+11з56480 0.0 1038987
20:00+7зюз47729 0.0 1038110
14 апреля, ср
ср1423:00+5зюз410809 0.0 1037186
02:00+5зюз51385100 0.0 1035254
05:00+5зюз61583100 0.0 1034324
08:00+7зюз61480100 0.0 1032422
11:00+12зюз7117336 0.0 1030574
14:00+16з796295 0.0 1029974
17:00+17з586461 0.0 10281071
20:00+12зюз498340 0.0 1027153
15 апреля, чт
чт1523:00+10з37895 0.0 1027101
02:00+9зюз49915 0.0 1026143
05:00+8з35938 0.0 102672
08:00+11зюз36835 0.0 1026197
11:00+16з586269 0.0 1024852
14:00+18з675343 0.0 10221403
17:00+18зюз68555 0.0 10201487
20:00+14зюз49745 0.0 1019165
16 апреля, пт
пт1623:00+11зюз410805 0.0 1018163
02:00+9зюз4118144 0.0 1016172
05:00+7зюз358881 0.0 101577
08:00+10з3775100 0.0 1014191
11:00+14з4652100 0.0 1013619
14:00+15сз5658100 0.0 10121078
17:00+9ссв7782100 0.0 1012530
20:00+1св81293100 1.0 1015534